Location: Unspecified
(0.0000°N, 0.0000°E)
Time: 13:13:47
(UTC+00:00)

Quakesat - Pass Details

Date: 07 August 2021
Orbit: 811 x 823 km, 98.7° (Epoch: 17 September)

Event Time Altitude Azimuth Distance (km) Brightness Sun altitude
Rises 05:18:31 0° 33° (NNE) 3,342 ? -11.3°
Reaches altitude 10° 05:21:10 10° 44° (NE) 2,411 ? -10.7°
Maximum altitude 05:25:42 29° 103° (ESE) 1,473 ? -9.6°
Drops below altitude 10° 05:30:14 10° 161° (SSE) 2,413 ? -8.5°
Sets 05:32:52 0° 172° (S) 3,345 ? -7.9°
